User: anonymous   Login
Location: Unspecified
(0.0000°N, 0.0000°E)
Time: 05:44:58
(UTC+00:00)
Language:

STARLINK-34502 - Orbit

View from above orbital plane
View from above orbital plane
View from above satellite
View from above satellite

Ground track
Ground track

The orbit is defined by the following mean orbital elements,

1 64680U          26145.32999737 +.00000000 +00000-0 +56108-3 0 00007
2 64680  53.1587 129.9476 0000933 103.4006 256.7100 15.34409615    01
Epoch (UTC): 25 May 2026 07:55:11
Eccentricity: 0.0000933
inclination: 53.1587°
perigee height: 462 km
apogee height: 463 km
right ascension of ascending node: 129.9476°
argument of perigee: 103.4006°
revolutions per day: 15.34409615
mean anomaly at epoch: 256.7100°

The dashed part of the orbit path shows where the satellite is in the earth's shadow,  

DLR